TimeEST,TemperatureF,Dew PointF,Humidity,Sea Level PressureIn,VisibilityMPH,Wind Direction,Wind SpeedMPH,Gust SpeedMPH,PrecipitationIn,Events,Conditions,WindDirDegrees,DateUTC
12:53 AM,44.1,28.9,55,30.31,10.0,NE,12.7,18.4,0.00,,Overcast,40,2012-11-15 05:53:00
1:53 AM,43.0,30.0,60,30.33,10.0,NE,9.2,-,0.00,Rain,Light Rain,50,2012-11-15 06:53:00
2:53 AM,39.9,34.0,79,30.34,4.0,NNE,5.8,-,0.08,Rain,Heavy Rain,30,2012-11-15 07:53:00
3:53 AM,39.0,35.1,86,30.31,9.0,East,8.1,19.6,0.10,Rain,Light Rain,80,2012-11-15 08:53:00
4:53 AM,37.9,35.1,89,30.30,10.0,NE,12.7,-,0.01,,Overcast,50,2012-11-15 09:53:00
5:53 AM,37.9,35.1,89,30.31,10.0,NE,8.1,-,N/A,,Scattered Clouds,40,2012-11-15 10:53:00
6:53 AM,37.9,34.0,86,30.30,10.0,NE,8.1,-,N/A,,Clear,50,2012-11-15 11:53:00
7:53 AM,37.0,34.0,89,30.33,8.0,NE,4.6,-,N/A,,Clear,40,2012-11-15 12:53:00
8:53 AM,41.0,34.0,76,30.34,10.0,Variable,6.9,17.3,N/A,,Clear,0,2012-11-15 13:53:00
9:53 AM,41.0,33.1,73,30.35,10.0,NE,9.2,-,N/A,,Overcast,40,2012-11-15 14:53:00
10:53 AM,42.1,33.1,70,30.34,10.0,NE,6.9,-,N/A,,Overcast,50,2012-11-15 15:53:00
11:53 AM,45.0,33.1,63,30.31,10.0,NE,10.4,-,N/A,,Overcast,50,2012-11-15 16:53:00
12:53 PM,48.9,34.0,56,30.28,10.0,NNE,5.8,-,N/A,,Clear,30,2012-11-15 17:53:00
1:53 PM,51.1,34.0,52,30.26,10.0,East,6.9,-,N/A,,Clear,90,2012-11-15 18:53:00
2:53 PM,52.0,34.0,50,30.24,10.0,East,6.9,-,N/A,,Overcast,80,2012-11-15 19:53:00
3:53 PM,52.0,34.0,50,30.24,10.0,ENE,4.6,-,N/A,,Clear,70,2012-11-15 20:53:00
4:53 PM,51.1,34.0,52,30.24,10.0,NE,6.9,-,N/A,,Clear,40,2012-11-15 21:53:00
5:53 PM,48.0,34.0,58,30.26,10.0,NE,4.6,-,N/A,,Clear,50,2012-11-15 22:53:00
6:53 PM,46.9,34.0,61,30.27,10.0,Calm,Calm,-,N/A,,Clear,0,2012-11-15 23:53:00
7:53 PM,46.0,33.1,61,30.29,10.0,Calm,Calm,-,N/A,,Clear,0,2012-11-16 00:53:00
8:53 PM,43.0,33.1,68,30.31,10.0,ENE,3.5,-,N/A,,Clear,60,2012-11-16 01:53:00
9:53 PM,42.1,32.0,67,30.31,10.0,ENE,4.6,-,N/A,,Clear,60,2012-11-16 02:53:00
10:53 PM,41.0,33.1,73,30.31,10.0,Calm,Calm,-,N/A,,Clear,0,2012-11-16 03:53:00
11:53 PM,39.0,32.0,76,30.30,10.0,Calm,Calm,-,N/A,,Clear,0,2012-11-16 04:53:00